Year,Month,Day,Hour,Minute,Value (Times are PST for temperature in C)
2015,05,20,00,00,12.60
2015,05,20,00,01,12.60
2015,05,20,00,02,12.60
2015,05,20,00,03,12.50
2015,05,20,00,04,12.50
2015,05,20,00,05,12.50
2015,05,20,00,06,12.50
2015,05,20,00,07,12.40
2015,05,20,00,08,12.40
2015,05,20,00,09,12.40
2015,05,20,00,10,12.40
2015,05,20,00,11,12.40
2015,05,20,00,12,12.40
2015,05,20,00,13,12.40
2015,05,20,00,14,12.40
2015,05,20,00,15,12.40
2015,05,20,00,16,12.40
2015,05,20,00,17,12.40
2015,05,20,00,18,12.40
2015,05,20,00,19,12.40
2015,05,20,00,20,12.40
2015,05,20,00,21,12.40
2015,05,20,00,22,12.40
2015,05,20,00,23,12.40
2015,05,20,00,24,12.40
2015,05,20,00,25,12.40
2015,05,20,00,26,12.40
2015,05,20,00,27,12.40
2015,05,20,00,28,12.40
2015,05,20,00,29,12.40
2015,05,20,00,30,12.40
2015,05,20,00,31,12.40
2015,05,20,00,32,12.40
2015,05,20,00,33,12.40
2015,05,20,00,34,12.40
2015,05,20,00,35,12.40
2015,05,20,00,36,12.40
2015,05,20,00,37,12.40
2015,05,20,00,38,12.40
2015,05,20,00,39,12.40
2015,05,20,00,40,12.40
2015,05,20,00,41,12.40
2015,05,20,00,42,12.40
2015,05,20,00,43,12.30
2015,05,20,00,44,12.30
2015,05,20,00,45,12.30
2015,05,20,00,46,12.30
2015,05,20,00,47,12.30
2015,05,20,00,48,12.30
2015,05,20,00,49,12.30
2015,05,20,00,50,12.30
2015,05,20,00,51,12.30
2015,05,20,00,52,12.30
2015,05,20,00,53,12.30
2015,05,20,00,54,12.30
2015,05,20,00,55,12.30
2015,05,20,00,56,12.30
2015,05,20,00,57,12.20
2015,05,20,00,58,12.20
2015,05,20,00,59,12.20
2015,05,20,01,00,12.20
2015,05,20,01,01,12.20
2015,05,20,01,02,12.20
2015,05,20,01,03,12.20
2015,05,20,01,04,12.20
2015,05,20,01,05,12.20
2015,05,20,01,06,12.20
2015,05,20,01,07,12.20
2015,05,20,01,08,12.20
2015,05,20,01,09,12.20
2015,05,20,01,10,12.20
2015,05,20,01,11,12.20
2015,05,20,01,12,12.20
2015,05,20,01,13,12.20
2015,05,20,01,14,12.20
2015,05,20,01,15,12.20
2015,05,20,01,16,12.20
2015,05,20,01,17,12.20
2015,05,20,01,18,12.20
2015,05,20,01,19,12.10
2015,05,20,01,20,12.10
2015,05,20,01,21,12.10
2015,05,20,01,22,12.10
2015,05,20,01,23,12.10
2015,05,20,01,24,12.10
2015,05,20,01,25,12.10
2015,05,20,01,26,12.10
2015,05,20,01,27,12.10
2015,05,20,01,28,12.10
2015,05,20,01,29,12.10
2015,05,20,01,30,12.10
2015,05,20,01,31,12.10
2015,05,20,01,32,12.10
2015,05,20,01,33,12.10
2015,05,20,01,34,12.10
2015,05,20,01,35,12.10
2015,05,20,01,36,12.10
2015,05,20,01,37,12.10
2015,05,20,01,38,12.10
2015,05,20,01,39,12.10
2015,05,20,01,40,12.10
2015,05,20,01,41,12.10
2015,05,20,01,42,12.10
2015,05,20,01,43,12.10
2015,05,20,01,44,12.00
2015,05,20,01,45,12.00
2015,05,20,01,46,12.00
2015,05,20,01,47,12.00
2015,05,20,01,48,12.00
2015,05,20,01,49,12.00
2015,05,20,01,50,12.00
2015,05,20,01,51,12.00
2015,05,20,01,52,12.00
2015,05,20,01,53,12.00
2015,05,20,01,54,12.00
2015,05,20,01,55,12.00
2015,05,20,01,56,12.00
2015,05,20,01,57,12.00
2015,05,20,01,58,12.00
2015,05,20,01,59,12.00
2015,05,20,02,00,12.00
2015,05,20,02,01,12.00
2015,05,20,02,02,11.90
2015,05,20,02,03,11.90
2015,05,20,02,04,11.90
2015,05,20,02,05,11.90
2015,05,20,02,06,11.90
2015,05,20,02,07,11.90
2015,05,20,02,08,11.90
2015,05,20,02,09,11.90
2015,05,20,02,10,11.90
2015,05,20,02,11,11.90
2015,05,20,02,12,11.90
2015,05,20,02,13,11.90
2015,05,20,02,14,11.90
2015,05,20,02,15,11.90
2015,05,20,02,16,11.90
2015,05,20,02,17,11.90
2015,05,20,02,18,11.90
2015,05,20,02,19,11.90
2015,05,20,02,20,11.90
2015,05,20,02,21,11.90
2015,05,20,02,22,11.90
2015,05,20,02,23,11.80
2015,05,20,02,24,11.80
2015,05,20,02,25,11.80
2015,05,20,02,26,11.80
2015,05,20,02,27,11.80
2015,05,20,02,28,11.80
2015,05,20,02,29,11.80
2015,05,20,02,30,11.80
2015,05,20,02,31,11.80
2015,05,20,02,32,11.80
2015,05,20,02,33,11.80
2015,05,20,02,34,11.80
2015,05,20,02,35,11.80
2015,05,20,02,36,11.80
2015,05,20,02,37,11.80
2015,05,20,02,38,11.80
2015,05,20,02,39,11.80
2015,05,20,02,40,11.80
2015,05,20,02,41,11.80
2015,05,20,02,42,11.80
2015,05,20,02,43,11.70
2015,05,20,02,44,11.70
2015,05,20,02,45,11.70
2015,05,20,02,46,11.80
2015,05,20,02,47,11.70
2015,05,20,02,48,11.70
2015,05,20,02,49,11.70
2015,05,20,02,50,11.70
2015,05,20,02,51,11.70
2015,05,20,02,52,11.70
2015,05,20,02,53,11.70
2015,05,20,02,54,11.80
2015,05,20,02,55,11.80
2015,05,20,02,56,11.80
2015,05,20,02,57,11.80
2015,05,20,02,58,11.80
2015,05,20,02,59,11.80
2015,05,20,03,00,11.80
2015,05,20,03,01,11.80
2015,05,20,03,02,11.80
2015,05,20,03,03,11.80
2015,05,20,03,04,11.80
2015,05,20,03,05,11.80
2015,05,20,03,06,11.80
2015,05,20,03,07,11.80
2015,05,20,03,08,11.80
2015,05,20,03,09,11.80
2015,05,20,03,10,11.80
2015,05,20,03,11,11.80
2015,05,20,03,12,11.70
2015,05,20,03,13,11.70
2015,05,20,03,14,11.70
2015,05,20,03,15,11.70
2015,05,20,03,16,11.70
2015,05,20,03,17,11.70
2015,05,20,03,18,11.70
2015,05,20,03,19,11.70
2015,05,20,03,20,11.70
2015,05,20,03,21,11.70
2015,05,20,03,22,11.70
2015,05,20,03,23,11.70
2015,05,20,03,24,11.70
2015,05,20,03,25,11.70
2015,05,20,03,26,11.70
2015,05,20,03,27,11.70
2015,05,20,03,28,11.70
2015,05,20,03,29,11.80
2015,05,20,03,30,11.70
2015,05,20,03,31,11.70
2015,05,20,03,32,11.80
2015,05,20,03,33,11.80
2015,05,20,03,34,11.70
2015,05,20,03,35,11.80
2015,05,20,03,36,11.70
2015,05,20,03,37,11.70
2015,05,20,03,38,11.80
2015,05,20,03,39,11.80
2015,05,20,03,40,11.80
2015,05,20,03,41,11.80
2015,05,20,03,42,11.80
2015,05,20,03,43,11.80
2015,05,20,03,44,11.80
2015,05,20,03,45,11.80
2015,05,20,03,46,11.80
2015,05,20,03,47,11.80
2015,05,20,03,48,11.80
2015,05,20,03,49,11.80
2015,05,20,03,50,11.80
2015,05,20,03,51,11.80
2015,05,20,03,52,11.80
2015,05,20,03,53,11.80
2015,05,20,03,54,11.80
2015,05,20,03,55,11.80
2015,05,20,03,56,11.80
2015,05,20,03,57,11.80
2015,05,20,03,58,11.80
2015,05,20,03,59,11.80
2015,05,20,04,00,11.80
2015,05,20,04,01,11.80
2015,05,20,04,02,11.80
2015,05,20,04,03,11.80
2015,05,20,04,04,11.80
2015,05,20,04,05,11.80
2015,05,20,04,06,11.80
2015,05,20,04,07,11.80
2015,05,20,04,08,11.80
2015,05,20,04,09,11.80
2015,05,20,04,10,11.80
2015,05,20,04,11,11.80
2015,05,20,04,12,11.80
2015,05,20,04,13,11.80
2015,05,20,04,14,11.80
2015,05,20,04,15,11.80
2015,05,20,04,16,11.80
2015,05,20,04,17,11.80
2015,05,20,04,18,11.80
2015,05,20,04,19,11.80
2015,05,20,04,20,11.80
2015,05,20,04,21,11.80
2015,05,20,04,22,11.80
2015,05,20,04,23,11.80
2015,05,20,04,24,11.80
2015,05,20,04,25,11.70
2015,05,20,04,26,11.70
2015,05,20,04,27,11.70
2015,05,20,04,28,11.70
2015,05,20,04,29,11.70
2015,05,20,04,30,11.70
2015,05,20,04,31,11.70
2015,05,20,04,32,11.70
2015,05,20,04,33,11.80
2015,05,20,04,34,11.80
2015,05,20,04,35,11.80
2015,05,20,04,36,11.80
2015,05,20,04,37,11.80
2015,05,20,04,38,11.80
2015,05,20,04,39,11.80
2015,05,20,04,40,11.80
2015,05,20,04,41,11.80
2015,05,20,04,42,11.70
2015,05,20,04,43,11.70
2015,05,20,04,44,11.70
2015,05,20,04,45,11.80
2015,05,20,04,46,11.70
2015,05,20,04,47,11.70
2015,05,20,04,48,11.70
2015,05,20,04,49,11.70
2015,05,20,04,50,11.70
2015,05,20,04,51,11.70
2015,05,20,04,52,11.70
2015,05,20,04,53,11.70
2015,05,20,04,54,11.70
2015,05,20,04,55,11.70
2015,05,20,04,56,11.70
2015,05,20,04,57,11.70
2015,05,20,04,58,11.70
2015,05,20,04,59,11.70
2015,05,20,05,00,11.70
2015,05,20,05,01,11.70
2015,05,20,05,02,11.70
2015,05,20,05,03,11.70
2015,05,20,05,04,11.70
2015,05,20,05,05,11.70
2015,05,20,05,06,11.70
2015,05,20,05,07,11.70
2015,05,20,05,08,11.60
2015,05,20,05,09,11.60
2015,05,20,05,10,11.60
2015,05,20,05,11,11.60
2015,05,20,05,12,11.60
2015,05,20,05,13,11.60
2015,05,20,05,14,11.60
2015,05,20,05,15,11.60
2015,05,20,05,16,11.60
2015,05,20,05,17,11.60
2015,05,20,05,18,11.60
2015,05,20,05,19,11.60
2015,05,20,05,20,11.60
2015,05,20,05,21,11.60
2015,05,20,05,22,11.60
2015,05,20,05,23,11.60
2015,05,20,05,24,11.60
2015,05,20,05,25,11.60
2015,05,20,05,26,11.60
2015,05,20,05,27,11.70
2015,05,20,05,28,11.70
2015,05,20,05,29,11.70
2015,05,20,05,30,11.70
2015,05,20,05,31,11.70
2015,05,20,05,32,11.70
2015,05,20,05,33,11.70
2015,05,20,05,34,11.60
2015,05,20,05,35,11.60
2015,05,20,05,36,11.60
2015,05,20,05,37,11.60
2015,05,20,05,38,11.60
2015,05,20,05,39,11.60
2015,05,20,05,40,11.60
2015,05,20,05,41,11.60
2015,05,20,05,42,11.60
2015,05,20,05,43,11.60
2015,05,20,05,44,11.60
2015,05,20,05,45,11.60
2015,05,20,05,46,11.60
2015,05,20,05,47,11.60
2015,05,20,05,48,11.60
2015,05,20,05,49,11.60
2015,05,20,05,50,11.60
2015,05,20,05,51,11.60
2015,05,20,05,52,11.60
2015,05,20,05,53,11.60
2015,05,20,05,54,11.60
2015,05,20,05,55,11.60
2015,05,20,05,56,11.60
2015,05,20,05,57,11.60
2015,05,20,05,58,11.60
2015,05,20,05,59,11.60
2015,05,20,06,00,11.60
2015,05,20,06,01,11.50
2015,05,20,06,02,11.60
2015,05,20,06,03,11.50
2015,05,20,06,04,11.50
2015,05,20,06,05,11.60
2015,05,20,06,06,11.50
2015,05,20,06,07,11.50
2015,05,20,06,08,11.50
2015,05,20,06,09,11.50
2015,05,20,06,10,11.50
2015,05,20,06,11,11.50
2015,05,20,06,12,11.50
2015,05,20,06,13,11.50
2015,05,20,06,14,11.40
2015,05,20,06,15,11.40
2015,05,20,06,16,11.40
2015,05,20,06,17,11.40
2015,05,20,06,18,11.40
2015,05,20,06,19,11.40
2015,05,20,06,20,11.40
2015,05,20,06,21,11.40
2015,05,20,06,22,11.40
2015,05,20,06,23,11.30
2015,05,20,06,24,11.30
2015,05,20,06,25,11.30
2015,05,20,06,26,11.30
2015,05,20,06,27,11.30
2015,05,20,06,28,11.30
2015,05,20,06,29,11.30
2015,05,20,06,30,11.30
2015,05,20,06,31,11.30
2015,05,20,06,32,11.30
2015,05,20,06,33,11.30
2015,05,20,06,34,11.30
2015,05,20,06,35,11.30
2015,05,20,06,36,11.30
2015,05,20,06,37,11.30
2015,05,20,06,38,11.30
2015,05,20,06,39,11.30
2015,05,20,06,40,11.30
2015,05,20,06,41,11.30
2015,05,20,06,42,11.30
2015,05,20,06,43,11.30
2015,05,20,06,44,11.30
2015,05,20,06,45,11.30
2015,05,20,06,46,11.40
2015,05,20,06,47,11.40
2015,05,20,06,48,11.40
2015,05,20,06,49,11.40
2015,05,20,06,50,11.40
2015,05,20,06,51,11.40
2015,05,20,06,52,11.40
2015,05,20,06,53,11.40
2015,05,20,06,54,11.40
2015,05,20,06,55,11.40
2015,05,20,06,56,11.50
2015,05,20,06,57,11.50
2015,05,20,06,58,11.50
2015,05,20,06,59,11.50
2015,05,20,07,00,11.60
2015,05,20,07,01,11.60
2015,05,20,07,02,11.70
2015,05,20,07,03,11.70
2015,05,20,07,04,11.70
2015,05,20,07,05,11.70
2015,05,20,07,06,11.70
2015,05,20,07,07,11.80
2015,05,20,07,08,11.80
2015,05,20,07,09,11.80
2015,05,20,07,10,11.80
2015,05,20,07,11,11.80
2015,05,20,07,12,11.90
2015,05,20,07,13,11.90
2015,05,20,07,14,11.90
2015,05,20,07,15,11.90
2015,05,20,07,16,11.90
2015,05,20,07,17,11.90
2015,05,20,07,18,11.90
2015,05,20,07,19,11.90
2015,05,20,07,20,11.90
2015,05,20,07,21,11.90
2015,05,20,07,22,11.90
2015,05,20,07,23,11.90
2015,05,20,07,24,11.90
2015,05,20,07,25,11.90
2015,05,20,07,26,11.90
2015,05,20,07,27,11.90
2015,05,20,07,28,11.90
2015,05,20,07,29,11.90
2015,05,20,07,30,11.90
2015,05,20,07,31,11.90
2015,05,20,07,32,11.90
2015,05,20,07,33,11.90
2015,05,20,07,34,11.90
2015,05,20,07,35,11.90
2015,05,20,07,36,11.90
2015,05,20,07,37,12.00
2015,05,20,07,38,12.00
2015,05,20,07,39,12.00
2015,05,20,07,40,12.00
2015,05,20,07,41,12.10
2015,05,20,07,42,12.10
2015,05,20,07,43,12.10
2015,05,20,07,44,12.10
2015,05,20,07,45,12.10
2015,05,20,07,46,12.10
2015,05,20,07,47,12.10
2015,05,20,07,48,12.10
2015,05,20,07,49,12.10
2015,05,20,07,50,12.10
2015,05,20,07,51,12.10
2015,05,20,07,52,12.10
2015,05,20,07,53,12.10
2015,05,20,07,54,12.10
2015,05,20,07,55,12.10
2015,05,20,07,56,12.10
2015,05,20,07,57,12.00
2015,05,20,07,58,12.00
2015,05,20,07,59,12.00
2015,05,20,08,00,12.00
2015,05,20,08,01,12.00
2015,05,20,08,02,12.00
2015,05,20,08,03,12.10
2015,05,20,08,04,12.10
2015,05,20,08,05,12.10
2015,05,20,08,06,12.10
2015,05,20,08,07,12.20
2015,05,20,08,08,12.20
2015,05,20,08,09,12.20
2015,05,20,08,10,12.20
2015,05,20,08,11,12.20
2015,05,20,08,12,12.20
2015,05,20,08,13,12.30
2015,05,20,08,14,12.30
2015,05,20,08,15,12.30
2015,05,20,08,16,12.30
2015,05,20,08,17,12.30
2015,05,20,08,18,12.30
2015,05,20,08,19,12.40
2015,05,20,08,20,12.40
2015,05,20,08,21,12.40
2015,05,20,08,22,12.40
2015,05,20,08,23,12.40
2015,05,20,08,24,12.40
2015,05,20,08,25,12.50
2015,05,20,08,26,12.50
2015,05,20,08,27,12.50
2015,05,20,08,28,12.40
2015,05,20,08,29,12.40
2015,05,20,08,30,12.40
2015,05,20,08,31,12.40
2015,05,20,08,32,12.40
2015,05,20,08,33,12.40
2015,05,20,08,34,12.30
2015,05,20,08,35,12.30
2015,05,20,08,36,12.30
2015,05,20,08,37,12.30
2015,05,20,08,38,12.30
2015,05,20,08,39,12.30
2015,05,20,08,40,12.30
2015,05,20,08,41,12.30
2015,05,20,08,42,12.30
2015,05,20,08,43,12.40
2015,05,20,08,44,12.40
2015,05,20,08,45,12.40
2015,05,20,08,46,12.40
2015,05,20,08,47,12.40
2015,05,20,08,48,12.40
2015,05,20,08,49,12.40
2015,05,20,08,50,12.40
2015,05,20,08,51,12.30
2015,05,20,08,52,12.30
2015,05,20,08,53,12.30
2015,05,20,08,54,12.30
2015,05,20,08,55,12.30
2015,05,20,08,56,12.40
2015,05,20,08,57,12.40
2015,05,20,08,58,12.40
2015,05,20,08,59,12.50
2015,05,20,09,00,12.50
2015,05,20,09,01,12.60
2015,05,20,09,02,12.60
2015,05,20,09,03,12.60
2015,05,20,09,04,12.70
2015,05,20,09,05,12.70
2015,05,20,09,06,12.70
2015,05,20,09,07,12.80
2015,05,20,09,08,12.80
2015,05,20,09,09,12.80
2015,05,20,09,10,12.80
2015,05,20,09,11,12.90
2015,05,20,09,12,12.90
2015,05,20,09,13,12.90
2015,05,20,09,14,12.90
2015,05,20,09,15,12.90
2015,05,20,09,16,12.90
2015,05,20,09,17,13.00
2015,05,20,09,18,13.00
2015,05,20,09,19,13.00
2015,05,20,09,20,13.10
2015,05,20,09,21,13.10
2015,05,20,09,22,13.10
2015,05,20,09,23,13.20
2015,05,20,09,24,13.20
2015,05,20,09,25,13.20
2015,05,20,09,26,13.20
2015,05,20,09,27,13.20
2015,05,20,09,28,13.20
2015,05,20,09,29,13.30
2015,05,20,09,30,13.30
2015,05,20,09,31,13.30
2015,05,20,09,32,13.30
2015,05,20,09,33,13.30
2015,05,20,09,34,13.40
2015,05,20,09,35,13.40
2015,05,20,09,36,13.40
2015,05,20,09,37,13.50
2015,05,20,09,38,13.50
2015,05,20,09,39,13.50
2015,05,20,09,40,13.50
2015,05,20,09,41,13.50
2015,05,20,09,42,13.60
2015,05,20,09,43,13.60
2015,05,20,09,44,13.60
2015,05,20,09,45,13.70
2015,05,20,09,46,13.70
2015,05,20,09,47,13.80
2015,05,20,09,48,13.80
2015,05,20,09,49,13.80
2015,05,20,09,50,13.90
2015,05,20,09,51,13.90
2015,05,20,09,52,14.00
2015,05,20,09,53,14.00
2015,05,20,09,54,14.10
2015,05,20,09,55,14.20
2015,05,20,09,56,14.20
2015,05,20,09,57,14.30
2015,05,20,09,58,14.40
2015,05,20,09,59,14.60
2015,05,20,10,00,14.70
2015,05,20,10,01,14.70
2015,05,20,10,02,14.80
2015,05,20,10,03,14.80
2015,05,20,10,04,14.80
2015,05,20,10,05,14.80
2015,05,20,10,06,14.80
2015,05,20,10,07,14.90
2015,05,20,10,08,14.90
2015,05,20,10,09,14.90
2015,05,20,10,10,14.90
2015,05,20,10,11,15.00
2015,05,20,10,12,15.10
2015,05,20,10,13,15.10
2015,05,20,10,14,15.20
2015,05,20,10,15,15.20
2015,05,20,10,16,15.20
2015,05,20,10,17,15.20
2015,05,20,10,18,15.30
2015,05,20,10,19,15.30
2015,05,20,10,20,15.40
2015,05,20,10,21,15.50
2015,05,20,10,22,15.60
2015,05,20,10,23,15.70
2015,05,20,10,24,15.70
2015,05,20,10,25,15.80
2015,05,20,10,26,15.80
2015,05,20,10,27,15.80
2015,05,20,10,28,15.80
2015,05,20,10,29,15.80
2015,05,20,10,30,15.70
2015,05,20,10,31,15.70
2015,05,20,10,32,15.70
2015,05,20,10,33,15.80
2015,05,20,10,34,15.80
2015,05,20,10,35,15.80
2015,05,20,10,36,15.90
2015,05,20,10,37,16.00
2015,05,20,10,38,16.10
2015,05,20,10,39,16.20
2015,05,20,10,40,16.20
2015,05,20,10,41,16.20
2015,05,20,10,42,16.30
2015,05,20,10,43,16.30
2015,05,20,10,44,16.40
2015,05,20,10,45,16.40
2015,05,20,10,46,16.40
2015,05,20,10,47,16.40
2015,05,20,10,48,16.50
2015,05,20,10,49,16.60
2015,05,20,10,50,16.70
2015,05,20,10,51,16.80
2015,05,20,10,52,16.90
2015,05,20,10,53,17.00
2015,05,20,10,54,17.10
2015,05,20,10,55,17.20
2015,05,20,10,56,17.30
2015,05,20,10,57,17.40
2015,05,20,10,58,17.60
2015,05,20,10,59,17.60
2015,05,20,11,00,17.70
2015,05,20,11,01,17.80
2015,05,20,11,02,17.80
2015,05,20,11,03,17.80
2015,05,20,11,04,17.90
2015,05,20,11,05,17.90
2015,05,20,11,06,17.90
2015,05,20,11,07,17.90
2015,05,20,11,09,18.00
2015,05,20,11,10,18.00
2015,05,20,11,11,18.10
2015,05,20,11,12,18.10
2015,05,20,11,13,18.10
2015,05,20,11,14,18.10
2015,05,20,11,15,18.10
2015,05,20,11,16,18.20
2015,05,20,11,17,18.20
2015,05,20,11,18,18.30
2015,05,20,11,19,18.40
2015,05,20,11,20,18.60
2015,05,20,11,21,18.70
2015,05,20,11,22,18.80
2015,05,20,11,23,19.00
2015,05,20,11,24,19.20
2015,05,20,11,25,19.20
2015,05,20,11,26,19.30
2015,05,20,11,27,19.40
2015,05,20,11,28,19.40
2015,05,20,11,29,19.50
2015,05,20,11,30,19.60
2015,05,20,11,31,19.70
2015,05,20,11,32,19.70
2015,05,20,11,33,19.80
2015,05,20,11,34,19.80
2015,05,20,11,35,19.90
2015,05,20,11,36,20.00
2015,05,20,11,37,20.10
2015,05,20,11,38,20.20
2015,05,20,11,39,20.20
2015,05,20,11,40,20.20
2015,05,20,11,41,20.10
2015,05,20,11,42,20.10
2015,05,20,11,43,20.10
2015,05,20,11,44,20.00
2015,05,20,11,45,19.90
2015,05,20,11,46,19.80
2015,05,20,11,47,19.90
2015,05,20,11,48,19.90
2015,05,20,11,49,20.00
2015,05,20,11,50,20.10
2015,05,20,11,51,20.10
2015,05,20,11,52,20.20
2015,05,20,11,53,20.30
2015,05,20,11,54,20.40
2015,05,20,11,55,20.40
2015,05,20,11,56,20.60
2015,05,20,11,57,20.80
2015,05,20,11,58,20.90
2015,05,20,11,59,21.00
2015,05,20,12,00,21.10
2015,05,20,12,01,21.10
2015,05,20,12,02,21.10
2015,05,20,12,03,21.10
2015,05,20,12,04,21.10
2015,05,20,12,05,21.10
2015,05,20,12,06,21.10
2015,05,20,12,07,21.10
2015,05,20,12,08,21.10
2015,05,20,12,09,21.10
2015,05,20,12,10,21.10
2015,05,20,12,11,21.20
2015,05,20,12,12,21.30
2015,05,20,12,13,21.40
2015,05,20,12,14,21.60
2015,05,20,12,16,21.80
2015,05,20,12,17,21.80
2015,05,20,12,18,21.90
2015,05,20,12,19,22.00
2015,05,20,12,20,22.10
2015,05,20,12,21,22.20
2015,05,20,12,22,22.30
2015,05,20,12,23,22.30
2015,05,20,12,24,22.40
2015,05,20,12,25,22.50
2015,05,20,12,26,22.60
2015,05,20,12,27,22.60
2015,05,20,12,28,22.70
2015,05,20,12,29,22.70
2015,05,20,12,30,22.60
2015,05,20,12,31,22.60
2015,05,20,12,32,22.70
2015,05,20,12,33,22.70
2015,05,20,12,34,22.70
2015,05,20,12,35,22.80
2015,05,20,12,36,22.80
2015,05,20,12,37,22.80
2015,05,20,12,38,22.90
2015,05,20,12,39,23.10
2015,05,20,12,40,23.20
2015,05,20,12,41,23.30
2015,05,20,12,42,23.40
2015,05,20,12,43,23.50
2015,05,20,12,44,23.60
2015,05,20,12,45,23.60
2015,05,20,12,46,23.60
2015,05,20,12,47,23.70
2015,05,20,12,48,23.80
2015,05,20,12,49,23.90
2015,05,20,12,50,24.10
2015,05,20,12,51,24.20
2015,05,20,12,52,24.30
2015,05,20,12,53,24.30
2015,05,20,12,54,24.40
2015,05,20,12,55,24.50
2015,05,20,12,56,24.60
2015,05,20,12,57,24.60
2015,05,20,12,58,24.70
2015,05,20,12,59,24.70
2015,05,20,13,00,24.70
2015,05,20,13,01,24.70
2015,05,20,13,02,24.70
2015,05,20,13,03,24.70
2015,05,20,13,04,24.70
2015,05,20,13,05,24.70
2015,05,20,13,06,24.80
2015,05,20,13,07,24.90
2015,05,20,13,08,25.00
2015,05,20,13,09,25.20
2015,05,20,13,10,25.30
2015,05,20,13,11,25.50
2015,05,20,13,12,25.70
2015,05,20,13,13,25.80
2015,05,20,13,14,25.90
2015,05,20,13,15,26.00
2015,05,20,13,16,26.20
2015,05,20,13,17,26.30
2015,05,20,13,18,26.40
2015,05,20,13,19,26.50
2015,05,20,13,20,26.60
2015,05,20,13,21,26.70
2015,05,20,13,22,26.70
2015,05,20,13,23,26.80
2015,05,20,13,24,26.90
2015,05,20,13,25,27.00
2015,05,20,13,26,27.10
2015,05,20,13,27,27.20
2015,05,20,13,28,27.20
2015,05,20,13,29,27.30
2015,05,20,13,30,27.40
2015,05,20,13,31,27.50
2015,05,20,13,32,27.70
2015,05,20,13,33,27.70
2015,05,20,13,34,27.70
2015,05,20,13,35,27.70
2015,05,20,13,36,27.70
2015,05,20,13,37,27.70
2015,05,20,13,38,27.70
2015,05,20,13,39,27.70
2015,05,20,13,40,27.60
2015,05,20,13,41,27.50
2015,05,20,13,42,27.40
2015,05,20,13,43,27.40
2015,05,20,13,44,27.30
2015,05,20,13,45,27.30
2015,05,20,13,46,27.30
2015,05,20,13,47,27.40
2015,05,20,13,48,27.40
2015,05,20,13,49,27.40
2015,05,20,13,50,27.40
2015,05,20,13,51,27.40
2015,05,20,13,52,27.40
2015,05,20,13,53,27.40
2015,05,20,13,54,27.50
2015,05,20,13,55,27.60
2015,05,20,13,56,27.60
2015,05,20,13,57,27.60
2015,05,20,13,58,27.60
2015,05,20,13,59,27.70
2015,05,20,14,00,27.70
2015,05,20,14,01,27.70
2015,05,20,14,02,27.70
2015,05,20,14,03,27.70
2015,05,20,14,04,27.80
2015,05,20,14,05,27.90
2015,05,20,14,06,28.10
2015,05,20,14,07,28.20
2015,05,20,14,08,28.20
2015,05,20,14,09,28.30
2015,05,20,14,10,28.30
2015,05,20,14,11,28.30
2015,05,20,14,12,28.30
2015,05,20,14,13,28.40
2015,05,20,14,14,28.40
2015,05,20,14,15,28.60
2015,05,20,14,16,28.70
2015,05,20,14,17,28.80
2015,05,20,14,18,28.90
2015,05,20,14,19,29.00
2015,05,20,14,20,29.10
2015,05,20,14,21,29.10
2015,05,20,14,22,29.10
2015,05,20,14,23,29.10
2015,05,20,14,24,29.20
2015,05,20,14,25,29.30
2015,05,20,14,26,29.40
2015,05,20,14,27,29.50
2015,05,20,14,28,29.60
2015,05,20,14,29,29.70
2015,05,20,14,30,29.70
2015,05,20,14,31,29.70
2015,05,20,14,32,29.80
2015,05,20,14,33,29.80
2015,05,20,14,34,29.90
2015,05,20,14,35,29.90
2015,05,20,14,36,30.10
2015,05,20,14,37,30.20
2015,05,20,14,38,30.20
2015,05,20,14,39,30.30
2015,05,20,14,40,30.20
2015,05,20,14,41,30.20
2015,05,20,14,42,30.20
2015,05,20,14,43,30.10
2015,05,20,14,44,30.10
2015,05,20,14,45,30.00
2015,05,20,14,46,29.90
2015,05,20,14,47,29.80
2015,05,20,14,48,29.70
2015,05,20,14,49,29.60
2015,05,20,14,50,29.40
2015,05,20,14,51,29.40
2015,05,20,14,52,29.40
2015,05,20,14,53,29.50
2015,05,20,14,54,29.60
2015,05,20,14,55,29.60
2015,05,20,14,56,29.70
2015,05,20,14,57,29.70
2015,05,20,14,58,29.70
2015,05,20,14,59,29.70
2015,05,20,15,00,29.70
2015,05,20,15,01,29.80
2015,05,20,15,02,29.80
2015,05,20,15,03,29.80
2015,05,20,15,04,29.90
2015,05,20,15,05,30.00
2015,05,20,15,06,30.00
2015,05,20,15,07,30.00
2015,05,20,15,08,30.00
2015,05,20,15,09,29.90
2015,05,20,15,10,29.80
2015,05,20,15,11,29.80
2015,05,20,15,12,29.70
2015,05,20,15,13,29.70
2015,05,20,15,14,29.80
2015,05,20,15,15,29.80
2015,05,20,15,16,29.80
2015,05,20,15,17,29.80
2015,05,20,15,18,29.80
2015,05,20,15,19,29.80
2015,05,20,15,20,29.80
2015,05,20,15,21,29.80
2015,05,20,15,22,29.80
2015,05,20,15,23,29.70
2015,05,20,15,24,29.70
2015,05,20,15,25,29.70
2015,05,20,15,26,29.70
2015,05,20,15,27,29.70
2015,05,20,15,28,29.70
2015,05,20,15,29,29.70
2015,05,20,15,30,29.70
2015,05,20,15,31,29.70
2015,05,20,15,32,29.60
2015,05,20,15,33,29.50
2015,05,20,15,34,29.40
2015,05,20,15,35,29.40
2015,05,20,15,36,29.30
2015,05,20,15,37,29.30
2015,05,20,15,38,29.20
2015,05,20,15,39,29.10
2015,05,20,15,40,28.80
2015,05,20,15,41,28.60
2015,05,20,15,42,28.20
2015,05,20,15,43,27.90
2015,05,20,15,44,27.80
2015,05,20,15,45,27.70
2015,05,20,15,46,27.70
2015,05,20,15,47,27.70
2015,05,20,15,48,27.70
2015,05,20,15,49,27.70
2015,05,20,15,50,27.70
2015,05,20,15,51,27.60
2015,05,20,15,52,27.50
2015,05,20,15,53,27.40
2015,05,20,15,54,27.30
2015,05,20,15,55,27.30
2015,05,20,15,56,27.30
2015,05,20,15,57,27.20
2015,05,20,15,58,27.10
2015,05,20,15,59,27.20
2015,05,20,16,00,27.20
2015,05,20,16,01,27.30
2015,05,20,16,02,27.30
2015,05,20,16,03,27.20
2015,05,20,16,04,27.10
2015,05,20,16,05,27.00
2015,05,20,16,06,27.00
2015,05,20,16,07,27.00
2015,05,20,16,08,26.90
2015,05,20,16,09,26.90
2015,05,20,16,10,26.90
2015,05,20,16,11,26.90
2015,05,20,16,12,26.90
2015,05,20,16,13,26.90
2015,05,20,16,14,27.00
2015,05,20,16,15,27.00
2015,05,20,16,16,27.00
2015,05,20,16,17,27.00
2015,05,20,16,18,27.00
2015,05,20,16,19,27.00
2015,05,20,16,20,27.00
2015,05,20,16,21,27.00
2015,05,20,16,22,26.90
2015,05,20,16,23,26.90
2015,05,20,16,24,26.80
2015,05,20,16,25,26.80
2015,05,20,16,26,26.70
2015,05,20,16,27,26.60
2015,05,20,16,28,26.60
2015,05,20,16,29,26.60
2015,05,20,16,30,26.60
2015,05,20,16,31,26.60
2015,05,20,16,32,26.60
2015,05,20,16,33,26.60
2015,05,20,16,34,26.70
2015,05,20,16,35,26.70
2015,05,20,16,36,26.70
2015,05,20,16,37,26.70
2015,05,20,16,38,26.60
2015,05,20,16,39,26.60
2015,05,20,16,40,26.60
2015,05,20,16,41,26.60
2015,05,20,16,42,26.60
2015,05,20,16,43,26.60
2015,05,20,16,44,26.60
2015,05,20,16,45,26.60
2015,05,20,16,46,26.50
2015,05,20,16,47,26.40
2015,05,20,16,48,26.30
2015,05,20,16,49,26.30
2015,05,20,16,50,26.30
2015,05,20,16,51,26.30
2015,05,20,16,52,26.30
2015,05,20,16,53,26.40
2015,05,20,16,54,26.40
2015,05,20,16,55,26.60
2015,05,20,16,56,26.60
2015,05,20,16,57,26.50
2015,05,20,16,58,26.40
2015,05,20,16,59,26.40
2015,05,20,17,00,26.40
2015,05,20,17,01,26.40
2015,05,20,17,02,26.40
2015,05,20,17,03,26.40
2015,05,20,17,04,26.30
2015,05,20,17,05,26.30
2015,05,20,17,06,26.20
2015,05,20,17,07,26.20
2015,05,20,17,08,26.20
2015,05,20,17,09,26.20
2015,05,20,17,10,26.20
2015,05,20,17,11,26.30
2015,05,20,17,12,26.30
2015,05,20,17,13,26.40
2015,05,20,17,14,26.30
2015,05,20,17,15,26.20
2015,05,20,17,16,26.20
2015,05,20,17,17,26.20
2015,05,20,17,18,26.20
2015,05,20,17,19,26.30
2015,05,20,17,20,26.30
2015,05,20,17,21,26.40